Weather in Warsaw

Poland     52°13′55″N   21°00′25″E
temp.,
°C
wind,
m/s
gust,
m/s
humid.,
%
clouds,
%
prec.,
mm/h
press.,
hPa
HPBL,
m
11 may, tue
tue1123:00+16se5147726 0.0 1015515
02:00+14se4118793 0.0 1015355
05:00+13se4138425 0.0 1015351
08:00+16se614655 0.0 1015555
11:00+22se711495 0.0 1014927
14:00+24se710415 0.0 10131285
17:00+24se710495 0.0 10121298
20:00+19se7136512 0.0 1011774
12 may, wed
wed1223:00+16se615695 0.0 1012683
02:00+14se615665 0.0 1011541
05:00+13se515635 0.0 1011507
08:00+16se615625 0.0 1011662
11:00+22se711481 0.0 10101267
14:00+23ese79446 0.0 10101948
17:00+20ese785162 0.0 10101470
20:00+16ese610550 0.0 10101080
13 may, thu
thu1323:00+13ese511660 0.0 1010646
02:00+10e411740 0.0 1008439
05:00+8e410764 0.0 1007343
08:00+12ese59595 0.0 1006660
11:00+16ese68477 0.0 10041396
14:00+18ese5641100 0.0 10021919
17:00+17ese4652100 0.0 10011362
20:00+14e357499 0.2 1001615
14 may, fri
fri1423:00+12ese248497 0.0 1001326
02:00+11ese2485100 0.1 1000307
05:00+11ese1294100 0.9 1000189
08:00+11sse1293100 1.9 1001314
11:00+13ssw358381 0.3 1002658
14:00+14ssw457196 0.6 10021027
17:00+15s226464 0.1 10031004
20:00+14wsw268151 0.3 1003187
15 may, sat
sat1523:00+12wsw4109311 0.0 1005469
02:00+11w5986100 0.0 1006569
05:00+11w4784100 0.0 1007622
08:00+12wsw457885 0.0 1008611
11:00+14wsw4571100 0.0 1009872
14:00+15wsw4573100 0.6 1009827
17:00+16wsw456457 0.4 10091089
20:00+14w247251 0.5 1009120